Sparta, WI

6:58 AM CDT on June 28, 2017 (GMT -0500)
Sparta-Fort McCoy

Weather History for KCMY - November, 2011

Change the Weather History Date:

Thursday, November 24, 2011

  Actual Average Record
Temperature  
Mean Temperature 46 °F -  
Max Temperature 53 °F 37 °F 59 °F (2001)
Min Temperature 39 °F 21 °F -6 °F (1950)
Degree Days  
Heating Degree Days 19    
Moisture  
Dew Point 40 °F    
Average Humidity 80    
Maximum Humidity 95    
Minimum Humidity 62    
Precipitation  
Precipitation 0.00 in - - ()
Sea Level Pressure  
Sea Level Pressure 30.01 in    
Wind  
Wind Speed 8 mph (SSW)    
Max Wind Speed 15 mph    
Max Gust Speed 20 mph    
Visibility 6 miles    
Events      
Averages and records for this station are not official NWS values.
T = Trace of Precipitation, MM = Missing Value Source: NWS Daily Summary

Daily Weather History Graph

Daily Weather History Graph

Search for Another Location

Airport or City:

Trip Planner

Search our weather history database for the weather conditions in past years. The results will help you decide how hot, cold, wet, or windy it might be!

Date:

Astronomy

Nov. 24, 2011 Rise Set
Actual Time 7:09 AM CST 4:29 PM CST
Civil Twilight 6:37 AM CST 5:01 PM CST
Nautical Twilight 6:01 AM CST 5:37 PM CST
Astronomical Twilight 5:27 AM CST 6:11 PM CST
Moon 6:27 AM CST (11/24) 3:59 PM CST (11/24)
Length of Visible Light 10h 24m
Length of Day
9h 20m
Waning Crescent, 0% of the Moon is Illuminated
Nov 24
Waning Crescent
Nov 25
New
Dec 2
First Quarter
Dec 10
Full
Dec 17
Last Quarter

Hourly Weather History & Observations

Time (CST) Temp. Windchill Dew Point Humidity Pressure Visibility Wind Dir Wind Speed Gust Speed Precip Events Conditions
12:15 AM 39.6 °F 34.7 °F 36.5 °F 89% 30.12 in 5.0 mi SSW 6.9 mph - N/A   Overcast
12:35 AM 39.7 °F 36.5 °F 36.5 °F 88% 30.11 in 5.0 mi SSW 4.6 mph - N/A   Overcast
12:55 AM 39.7 °F 35.6 °F 36.5 °F 88% 30.10 in 7.0 mi SSW 5.8 mph - N/A   Overcast
1:15 AM 39.7 °F 34.9 °F 36.5 °F 88% 30.10 in 7.0 mi SSW 6.9 mph - N/A   Overcast
1:35 AM 39.9 °F 36.7 °F 36.5 °F 88% 30.10 in 7.0 mi SSW 4.6 mph - N/A   Overcast
1:55 AM 40.1 °F 35.3 °F 36.5 °F 87% 30.11 in 7.0 mi SW 6.9 mph - N/A   Overcast
2:15 AM 40.1 °F 35.3 °F 36.5 °F 87% 30.10 in 7.0 mi South 6.9 mph - N/A   Overcast
2:35 AM 40.1 °F 36.9 °F 36.5 °F 87% 30.09 in 7.0 mi SSW 4.6 mph - N/A   Overcast
2:55 AM 40.3 °F 34.9 °F 36.7 °F 87% 30.09 in 7.0 mi SSW 8.1 mph - N/A   Overcast
3:15 AM 40.5 °F 35.8 °F 37.2 °F 88% 30.08 in 5.0 mi SSW 6.9 mph - N/A   Overcast
3:35 AM 40.6 °F 36.0 °F 37.6 °F 89% 30.08 in 5.0 mi SSW 6.9 mph - N/A   Overcast
4:15 AM 41.0 °F 38.0 °F 38.3 °F 90% 30.08 in 4.0 mi SSW 4.6 mph - N/A   Overcast
4:35 AM 41.0 °F 38.0 °F 38.5 °F 91% 30.07 in 4.0 mi SSW 4.6 mph - N/A   Overcast
4:55 AM 41.0 °F 38.0 °F 39.0 °F 93% 30.07 in 4.0 mi SSW 4.6 mph - N/A   Overcast
5:15 AM 41.0 °F 36.4 °F 39.2 °F 93% 30.06 in 4.0 mi South 6.9 mph - N/A   Overcast
5:35 AM 41.0 °F 35.8 °F 39.4 °F 94% 30.05 in 4.0 mi South 8.1 mph - N/A   Overcast
5:55 AM 41.0 °F 35.8 °F 39.4 °F 94% 30.05 in 4.0 mi South 8.1 mph - N/A   Overcast
6:15 AM 41.0 °F 36.4 °F 39.6 °F 95% 30.05 in 4.0 mi SSW 6.9 mph - N/A   Overcast
6:35 AM 41.2 °F 37.3 °F 39.6 °F 94% 30.05 in 4.0 mi South 5.8 mph - N/A   Overcast
6:55 AM 41.2 °F 37.3 °F 39.6 °F 94% 30.05 in 4.0 mi SSW 5.8 mph - N/A   Overcast
7:35 AM 41.4 °F 36.2 °F 39.6 °F 93% 30.05 in 4.0 mi SSW 8.1 mph - N/A   Overcast
7:55 AM 41.7 °F 35.2 °F 39.6 °F 92% 30.05 in 4.0 mi South 11.5 mph - N/A   Overcast
8:15 AM 41.9 °F 35.9 °F 39.4 °F 91% 30.04 in 3.0 mi South 10.4 mph - N/A   Overcast
8:35 AM 42.1 °F 39.2 °F 39.6 °F 91% 30.05 in 3.0 mi SSW 4.6 mph 16.1 mph N/A   Overcast
8:55 AM 42.6 °F 36.8 °F 39.6 °F 89% 30.05 in 3.0 mi SSW 10.4 mph 16.1 mph N/A   Overcast
9:15 AM 43.2 °F 37.9 °F 39.6 °F 87% 30.04 in 4.0 mi SSW 9.2 mph - N/A   Overcast
9:55 AM 45.3 °F 41.1 °F 39.9 °F 81% 30.03 in 5.0 mi SSW 8.1 mph - N/A   Haze
10:15 AM 45.9 °F 40.0 °F 39.9 °F 80% 30.03 in 5.0 mi South 12.7 mph 16.1 mph N/A   Haze
10:35 AM 46.8 °F - 39.9 °F 77% 30.02 in 5.0 mi SSW 8.1 mph 19.6 mph N/A   Haze
10:55 AM 47.5 °F - 39.9 °F 75% 30.00 in 5.0 mi SSW 11.5 mph 17.3 mph N/A   Haze
11:15 AM 48.4 °F - 40.1 °F 73% 30.00 in 7.0 mi South 12.7 mph 17.3 mph N/A   Clear
11:35 AM 49.5 °F - 40.1 °F 70% 29.99 in 7.0 mi South 10.4 mph 16.1 mph N/A   Clear
11:55 AM 50.2 °F - 39.9 °F 68% 29.98 in 7.0 mi SW 8.1 mph - N/A   Clear
12:15 PM 51.3 °F - 40.3 °F 66% 29.96 in 7.0 mi South 15.0 mph - N/A   Clear
12:35 PM 51.8 °F - 40.3 °F 65% 29.95 in 7.0 mi South 9.2 mph 17.3 mph N/A   Clear
12:55 PM 52.3 °F - 40.6 °F 64% 29.94 in 10.0 mi South 13.8 mph - N/A   Clear
1:15 PM 52.7 °F - 40.6 °F 64% 29.92 in 7.0 mi South 15.0 mph 19.6 mph N/A   Clear
1:35 PM 53.6 °F - 40.8 °F 62% 29.92 in 7.0 mi South 11.5 mph - N/A   Clear
2:15 PM 52.7 °F - 41.0 °F 64% 29.91 in 7.0 mi SSW 10.4 mph 17.3 mph N/A   Clear
2:35 PM 52.5 °F - 41.4 °F 66% 29.90 in 7.0 mi South 9.2 mph 17.3 mph N/A   Clear
2:55 PM 53.1 °F - 41.5 °F 65% 29.90 in 7.0 mi South 8.1 mph - N/A   Clear
3:15 PM 53.6 °F - 41.7 °F 64% 29.90 in 10.0 mi South 8.1 mph 19.6 mph N/A   Clear
3:35 PM 53.2 °F - 41.5 °F 65% 29.90 in 10.0 mi South 10.4 mph - N/A   Clear
3:55 PM 52.5 °F - 41.5 °F 66% 29.90 in 10.0 mi SSW 8.1 mph - N/A   Clear
4:15 PM 51.8 °F - 41.5 °F 68% 29.89 in 10.0 mi SSW 10.4 mph - N/A   Clear
4:55 PM 50.9 °F - 41.7 °F 71% 29.89 in 10.0 mi South 9.2 mph - N/A   Clear
5:15 PM 50.7 °F - 41.9 °F 72% 29.89 in 10.0 mi South 6.9 mph 18.4 mph N/A   Clear
5:35 PM 50.5 °F - 41.9 °F 72% 29.89 in 10.0 mi SSW 6.9 mph - N/A   Clear
5:55 PM 50.5 °F - 42.1 °F 73% 29.88 in 10.0 mi SSW 4.6 mph - N/A   Clear
6:15 PM 50.9 °F - 42.3 °F 72% 29.87 in 10.0 mi SSW 10.4 mph - N/A   Clear
6:55 PM 50.5 °F - 42.4 °F 74% 29.87 in 10.0 mi SSW 10.4 mph 18.4 mph N/A   Clear
7:15 PM 50.4 °F - 42.4 °F 74% 29.87 in 10.0 mi South 6.9 mph - N/A   Clear
7:35 PM 50.7 °F - 42.4 °F 73% 29.86 in 10.0 mi SSW 9.2 mph - N/A   Clear
7:55 PM 50.5 °F - 42.4 °F 74% 29.86 in 10.0 mi SSW 8.1 mph - N/A   Clear
8:15 PM 50.5 °F - 42.6 °F 74% 29.86 in 10.0 mi SSW 6.9 mph - N/A   Clear
8:35 PM 50.7 °F - 42.4 °F 73% 29.85 in 10.0 mi SSW 10.4 mph - N/A   Clear
8:55 PM 50.9 °F - 42.3 °F 72% 29.85 in 10.0 mi SSW 8.1 mph - N/A   Clear
9:15 PM 50.7 °F - 42.1 °F 72% 29.85 in 10.0 mi SSW 9.2 mph - N/A   Clear
9:35 PM 50.9 °F - 41.9 °F 71% 29.85 in 10.0 mi SSW 8.1 mph - N/A   Clear
9:55 PM 51.1 °F - 41.7 °F 70% 29.84 in 10.0 mi SSW 9.2 mph 16.1 mph N/A   Clear
10:15 PM 51.3 °F - 41.2 °F 68% 29.84 in 10.0 mi SSW 5.8 mph - N/A   Clear
10:35 PM 51.3 °F - 41.0 °F 68% 29.83 in 10.0 mi SW 5.8 mph - N/A   Clear
11:15 PM 51.8 °F - 40.3 °F 65% 29.83 in 10.0 mi SSW 6.9 mph - N/A   Clear
11:55 PM 51.6 °F - 39.6 °F 63% 29.83 in 10.0 mi SSW 6.9 mph - N/A   Clear